Location: Cabo di Oristano
(39.8500°N, 8.4333°E)
Time: 16:08:58
(UTC+00:00)

USA 229 DEB - Pass Details

Date: 31 January 2023
Orbit: 916 x 1296 km, 63.4° (Epoch: 30 March)

Event Time Altitude Azimuth Distance (km) Brightness Sun altitude
Exits shadow 05:50:28 - 242° (WSW) 3,561 6.0 -9.1°
Reaches altitude 10° 05:53:06 10° 252° (WSW) 2,675 5.3 -8.6°
Maximum altitude 05:58:45 35° 317° (NW) 1,564 4.2 -7.5°
Drops below altitude 10° 06:04:51 10° 21° (NNE) 2,890 6.0 -6.4°
Sets 06:07:54 0° 30° (NNE) 3,912 6.8 -5.9°
